TimeCST,TemperatureF,Dew PointF,Humidity,Sea Level PressureIn,VisibilityMPH,Wind Direction,Wind SpeedMPH,Gust SpeedMPH,PrecipitationIn,Events,Conditions,WindDirDegrees,DateUTC
12:13 AM,26.6,23.0,86,29.77,10.0,NW,6.9,-,N/A,,Scattered Clouds,310,2014-01-20 06:13:00
12:34 AM,26.6,23.0,86,29.77,10.0,West,6.9,-,N/A,,Mostly Cloudy,280,2014-01-20 06:34:00
12:51 AM,26.6,24.8,93,29.77,10.0,WNW,8.1,-,N/A,,Mostly Cloudy,290,2014-01-20 06:51:00
1:14 AM,28.4,24.8,86,29.77,10.0,WNW,10.4,-,N/A,,Mostly Cloudy,290,2014-01-20 07:14:00
1:31 AM,28.4,24.8,86,29.77,10.0,WNW,10.4,-,N/A,,Mostly Cloudy,290,2014-01-20 07:31:00
1:53 AM,30.2,24.8,80,29.77,10.0,NW,10.4,-,N/A,,Mostly Cloudy,310,2014-01-20 07:53:00
2:11 AM,30.2,24.8,80,29.78,10.0,NW,10.4,16.1,N/A,,Scattered Clouds,310,2014-01-20 08:11:00
2:33 AM,28.4,24.8,86,29.79,10.0,NW,10.4,-,N/A,,Clear,310,2014-01-20 08:33:00
2:54 AM,28.4,23.0,80,29.80,10.0,NNW,15.0,20.7,N/A,,Clear,330,2014-01-20 08:54:00
3:14 AM,28.4,21.2,74,29.81,10.0,NNW,12.7,-,N/A,,Clear,340,2014-01-20 09:14:00
3:33 AM,26.6,21.2,80,29.82,10.0,North,15.0,-,N/A,,Clear,360,2014-01-20 09:33:00
3:54 AM,23.0,19.4,86,29.84,10.0,North,12.7,-,N/A,,Mostly Cloudy,10,2014-01-20 09:54:00
4:14 AM,21.2,17.6,86,29.83,10.0,North,10.4,-,N/A,,Overcast,360,2014-01-20 10:14:00
4:33 AM,21.2,17.6,86,29.83,7.0,North,9.2,-,N/A,,Mostly Cloudy,360,2014-01-20 10:33:00
4:54 AM,19.4,17.6,93,29.83,10.0,North,9.2,-,N/A,,Scattered Clouds,360,2014-01-20 10:54:00
5:14 AM,19.4,15.8,86,29.84,10.0,North,6.9,-,N/A,,Scattered Clouds,350,2014-01-20 11:14:00
5:33 AM,19.4,17.6,93,29.85,7.0,NW,6.9,-,N/A,,Overcast,320,2014-01-20 11:33:00
5:54 AM,19.4,17.6,93,29.86,7.0,NNW,5.8,-,N/A,,Overcast,340,2014-01-20 11:54:00
6:14 AM,19.4,17.6,93,29.86,7.0,North,10.4,-,N/A,,Overcast,360,2014-01-20 12:14:00
6:33 AM,19.4,17.6,93,29.88,7.0,North,12.7,-,N/A,,Overcast,360,2014-01-20 12:33:00
6:54 AM,17.6,15.8,93,29.89,10.0,North,16.1,-,N/A,,Overcast,350,2014-01-20 12:54:00
7:14 AM,17.6,14.0,86,29.89,10.0,North,13.8,-,N/A,,Overcast,350,2014-01-20 13:14:00
7:34 AM,17.6,12.2,79,29.90,10.0,North,15.0,-,N/A,,Overcast,350,2014-01-20 13:34:00
7:53 AM,17.6,12.2,79,29.91,10.0,North,16.1,-,N/A,,Overcast,350,2014-01-20 13:53:00
8:12 AM,17.6,12.2,79,29.92,10.0,NNW,13.8,-,N/A,,Overcast,340,2014-01-20 14:12:00
8:33 AM,15.8,12.2,86,29.94,10.0,North,17.3,-,N/A,,Overcast,350,2014-01-20 14:33:00
8:54 AM,15.8,10.4,79,29.95,10.0,North,17.3,-,N/A,,Overcast,350,2014-01-20 14:54:00
9:13 AM,14.0,10.4,86,29.98,7.0,North,16.1,-,N/A,,Overcast,350,2014-01-20 15:13:00
9:34 AM,14.0,10.4,86,30.00,3.0,North,17.3,25.3,N/A,Snow,Light Snow,360,2014-01-20 15:34:00
9:53 AM,12.2,8.6,85,30.01,1.0,North,20.7,-,N/A,Snow,Light Snow,360,2014-01-20 15:53:00
10:14 AM,12.2,8.6,85,30.03,1.0,North,17.3,-,N/A,Snow,Light Snow,350,2014-01-20 16:14:00
10:34 AM,12.2,6.8,79,30.04,1.0,North,19.6,25.3,N/A,Snow,Light Snow,350,2014-01-20 16:34:00
10:53 AM,10.4,6.8,85,30.05,0.5,North,19.6,-,N/A,Snow,Light Snow,350,2014-01-20 16:53:00
11:14 AM,10.4,6.8,85,30.07,0.5,North,23.0,26.5,N/A,Snow,Light Snow,350,2014-01-20 17:14:00
11:34 AM,10.4,6.8,85,30.09,0.5,North,25.3,-,N/A,Snow,Light Snow,360,2014-01-20 17:34:00
11:54 AM,8.6,5.0,85,30.11,-9999.0,North,21.9,31.1,N/A,,Overcast,350,2014-01-20 17:54:00
12:13 PM,8.6,3.2,79,30.11,-9999.0,North,24.2,28.8,N/A,,Overcast,350,2014-01-20 18:13:00
12:34 PM,8.6,3.2,79,30.12,-9999.0,North,23.0,-,N/A,,Overcast,360,2014-01-20 18:34:00
12:54 PM,8.6,3.2,79,30.14,-9999.0,North,23.0,-,N/A,,Overcast,350,2014-01-20 18:54:00
1:14 PM,8.6,3.2,79,30.16,-9999.0,North,26.5,-,N/A,,Overcast,350,2014-01-20 19:14:00
1:34 PM,-9999,-9999,N/A,30.18,-9999.0,North,27.6,-,N/A,,Unknown,360,2014-01-20 19:34:00
1:54 PM,5.0,-0.4,78,30.21,-9999.0,North,29.9,35.7,N/A,,Overcast,360,2014-01-20 19:54:00
2:13 PM,3.2,-0.4,85,30.23,-9999.0,North,26.5,33.4,N/A,,Overcast,350,2014-01-20 20:13:00
2:34 PM,3.2,-2.2,78,30.26,-9999.0,North,32.2,35.7,N/A,,Overcast,350,2014-01-20 20:34:00
2:54 PM,1.4,-2.2,85,30.27,-9999.0,North,24.2,35.7,N/A,,Overcast,350,2014-01-20 20:54:00
3:13 PM,1.4,-4.0,78,30.30,-9999.0,North,26.5,39.1,N/A,,Overcast,350,2014-01-20 21:13:00
3:34 PM,-0.4,-5.8,78,30.33,-9999.0,North,28.8,36.8,N/A,,Overcast,350,2014-01-20 21:34:00
3:54 PM,-0.4,-5.8,78,30.35,-9999.0,North,31.1,36.8,N/A,,Overcast,350,2014-01-20 21:54:00
4:14 PM,-0.4,-7.6,72,30.36,0.2,North,35.7,41.4,N/A,Snow,Snow,350,2014-01-20 22:14:00
4:33 PM,-2.2,-9.4,71,30.37,0.5,NNW,27.6,34.5,N/A,Snow,Light Snow,340,2014-01-20 22:33:00
4:54 PM,-4.0,-11.2,71,30.39,1.2,North,24.2,34.5,N/A,Snow,Light Snow,350,2014-01-20 22:54:00
5:13 PM,-5.8,-11.2,77,30.41,3.0,NNW,20.7,26.5,N/A,,Haze,340,2014-01-20 23:13:00
5:34 PM,-5.8,-11.2,77,30.43,7.0,NNW,24.2,28.8,N/A,,Overcast,340,2014-01-20 23:34:00
5:54 PM,-7.6,-13.0,77,30.44,5.0,NNW,25.3,31.1,N/A,,Haze,340,2014-01-20 23:54:00
6:14 PM,-7.6,-14.8,71,30.45,3.0,NNW,26.5,34.5,N/A,,Haze,340,2014-01-21 00:14:00
6:34 PM,-7.6,-14.8,71,30.46,4.0,NNW,23.0,32.2,N/A,,Haze,340,2014-01-21 00:34:00
6:53 PM,-9.4,-16.6,71,30.48,10.0,NNW,21.9,28.8,N/A,,Overcast,340,2014-01-21 00:53:00
7:14 PM,-9.4,-16.6,71,30.49,10.0,NNW,18.4,27.6,N/A,,Scattered Clouds,340,2014-01-21 01:14:00
7:33 PM,-9.4,-18.4,65,30.51,10.0,NNW,19.6,27.6,N/A,,Clear,340,2014-01-21 01:33:00
7:53 PM,-9.4,-18.4,65,30.51,10.0,NNW,19.6,26.5,N/A,,Clear,340,2014-01-21 01:53:00
8:14 PM,-9.4,-18.4,65,30.52,10.0,NNW,18.4,28.8,N/A,,Clear,340,2014-01-21 02:14:00
8:34 PM,-11.2,-18.4,70,30.52,10.0,NNW,19.6,26.5,N/A,,Clear,340,2014-01-21 02:34:00
8:53 PM,-11.2,-18.4,70,30.53,10.0,NNW,16.1,19.6,N/A,,Clear,340,2014-01-21 02:53:00
9:13 PM,-11.2,-18.4,70,30.53,10.0,NNW,16.1,20.7,N/A,,Clear,340,2014-01-21 03:13:00
9:34 PM,-11.2,-20.2,64,30.53,10.0,NNW,16.1,20.7,N/A,,Clear,330,2014-01-21 03:34:00
9:53 PM,-11.2,-20.2,64,30.54,10.0,NNW,13.8,-,N/A,,Clear,340,2014-01-21 03:53:00
10:13 PM,-13.0,-20.2,70,30.54,10.0,NNW,16.1,-,N/A,,Clear,340,2014-01-21 04:13:00
10:34 PM,-13.0,-20.2,70,30.54,10.0,NNW,17.3,21.9,N/A,,Clear,330,2014-01-21 04:34:00
10:54 PM,-13.0,-20.2,70,30.54,10.0,NNW,13.8,-,N/A,,Clear,340,2014-01-21 04:54:00
11:14 PM,-13.0,-20.2,70,30.55,10.0,North,10.4,-,N/A,,Clear,350,2014-01-21 05:14:00
11:34 PM,-13.0,-20.2,70,30.55,10.0,NNW,9.2,-,N/A,,Clear,340,2014-01-21 05:34:00
11:54 PM,-14.8,-20.2,77,30.55,10.0,NNW,6.9,-,N/A,,Clear,340,2014-01-21 05:54:00